Flag for Romania Weather past 2 weeks in Sibiu, Romania

37 °F

Partly sunny.

Feels Like: 37 °F
Forecast: 40 / 48 °F
Wind: 2 mph from South

Location: Sibiu Airport

Current Time: Nov 30, 2015 at 10:44:27 AM

Latest Report: Nov 30, 2015 at 10:00 AM

Visibility: N/A

Pressure: 30.07 "Hg

Humidity: 87%

Dew point: 34 °F

Location of SibiuLocation

Historic Weather in Sibiu — Graph


Sibiu temperature yesterday

Maximum temperature yesterday: 37 °F (at 1:00 PM)
Minimum temperature yesterday: 34 °F (at 8:00 PM)
Average temperature yesterday: 36 °F

Past Weeks' High & Low Weather Summary

High64 °F (Nov 17, 2:00 PM)100% (Nov 17, 3:00 AM)30.27 "Hg (Nov 17, 3:00 AM)
Low30 °F (Nov 23, 8:30 PM)39% (Nov 19, 2:00 PM)29.18 "Hg (Nov 22, 12:00 AM)
Average42 °F83%29.90 "Hg
* Reported Nov 15 9:00 AM — Nov 30 9:30 AM, Sibiu, Weather by CustomWeather, © 2015

Note: Actual official high and low records may vary slightly from our data, if they occured in-between our weather recording intervals... More about our weather records


Sibiu weather history for previous 24 hours

Time TempWeatherWind HumidityBarometerVisibility
9:30 AM
Mon, Nov 30
37 °FMore clouds than sun.2 mph87%30.09 "HgN/A
9:00 AM37 °FMore clouds than sun.1 mph87%30.07 "HgN/A
8:30 AM36 °FBroken clouds.No wind87%30.07 "HgN/A
8:00 AM36 °FBroken clouds.3 mph87%30.07 "HgN/A
7:30 AM36 °FPartly cloudy.3 mph87%30.07 "HgN/A
7:00 AM36 °FPassing clouds.3 mph87%30.07 "HgN/A
6:30 AM34 °FPassing clouds.2 mph93%30.07 "HgN/A
5:30 AM36 °FPassing clouds.2 mph87%30.07 "HgN/A
5:00 AM36 °FPassing clouds.3 mph87%30.07 "HgN/A
4:00 AM36 °FOvercast.1 mph81%30.07 "HgN/A
3:00 AM36 °FPartly cloudy.3 mph81%30.09 "HgN/A
2:00 AM36 °FPassing clouds.5 mph81%30.09 "HgN/A
1:00 AM37 °FPassing clouds.2 mph81%30.12 "HgN/A
12:00 AM37 °FLight rain. Passing clouds.7 mph75%30.12 "HgN/A
11:00 PM
Sun, Nov 29
37 °FOvercast.10 mph70%30.12 "HgN/A
10:00 PM34 °FPassing clouds.8 mph81%30.12 "HgN/A
9:00 PM36 °FClear.14 mph70%30.12 "Hg10 mi
8:30 PM34 °FPassing clouds.14 mph75%30.12 "HgN/A
8:00 PM34 °FPassing clouds.9 mph81%30.09 "HgN/A
7:30 PM36 °FPassing clouds.18 mph81%30.09 "HgN/A
7:00 PM36 °FPassing clouds.10 mph81%30.09 "HgN/A
6:30 PM37 °FOvercast.7 mph75%30.09 "HgN/A
6:00 PM37 °FOvercast.10 mph75%30.09 "HgN/A
5:30 PM37 °FPassing clouds.7 mph81%30.09 "HgN/A
5:00 PM37 °FPassing clouds.7 mph81%30.09 "HgN/A
4:30 PM36 °FPartly sunny.9 mph87%30.09 "Hg6 mi
4:00 PM37 °FPartly sunny.9 mph81%30.07 "Hg6 mi
3:30 PM37 °FOvercast.8 mph81%30.07 "Hg5 mi
3:00 PM37 °FBroken clouds.9 mph81%30.07 "Hg5 mi
2:30 PM36 °FBroken clouds.13 mph87%30.07 "Hg5 mi
2:00 PM36 °FBroken clouds.14 mph87%30.04 "HgN/A
1:30 PM37 °FBroken clouds.14 mph75%30.04 "HgN/A
1:00 PM37 °FBroken clouds.8 mph75%30.04 "HgN/A
12:00 PM36 °FPartly sunny.10 mph81%30.04 "HgN/A
11:30 AM36 °FOvercast.10 mph81%30.04 "HgN/A
11:00 AM36 °FOvercast.15 mph81%30.04 "HgN/A
10:30 AM36 °FPartly sunny.14 mph81%30.04 "HgN/A
10:00 AM36 °FPartly sunny.13 mph81%30.01 "HgN/A
Weather by CustomWeather, © 2015

See weather overviewHow to use our weather pages